{"data":{"norad_id":43874,"epoch":"2026-09-19T18:38:32.211744Z","epoch_age_seconds":80614,"freshness":"FRESH","line1":"1 43874U 18110A   26262.77676171  .00000014  00000+0  00000+0 0  9990","line2":"2 43874   2.7812  79.2608 0004084 137.9620 231.8736  1.00453663 28372","mean_motion":1.00453663,"eccentricity":0.0004084,"inclination_deg":2.7812,"raan_deg":79.2608,"arg_perigee_deg":137.962,"mean_anomaly_deg":231.8736,"bstar":0,"rev_number":2837,"period_min":1433.4967556136,"perigee_km":35718.485615503,"apogee_km":35752.884185231,"semimajor_km":42113.821900367,"source":"CELESTRAK","updated_at":"2026-09-20T09:00:35.264784Z"}}